EHI
23 20 18 17 15 12 9 8 9 7 7 9 10 8 5 4 5 5 4 4 5 7 7 7 7 7 8 9 11 15 17 17 16 13 12 15 16 12 11 10 8 6 5
24 23 22 21 19 16 12 10 11 10 9 10 11 10 8 8 8 8 7 7 9 9 9 9 9 9 11 11 11 13 15 17 18 17 16 16 14 11 10 10 8 6 5
24 25 26 26 24 22 19 15 14 14 14 14 14 14 14 14 14 14 14 14 14 13 12 12 11 11 13 14 14 14 15 17 18 19 18 17 14 10 9 8 7 7 6
27 27 31 32 31 28 25 21 18 17 17 18 18 17 17 17 17 17 18 18 17 17 16 14 13 13 15 17 17 18 18 18 19 18 18 17 15 13 10 8 7 8 8
33 31 32 35 35 33 29 25 20 17 17 19 19 18 16 14 12 13 16 18 20 20 19 17 15 15 16 15 14 14 16 18 19 18 17 17 17 16 14 11 10 9 10
38 34 33 34 35 33 30 25 20 16 17 19 19 17 15 12 8 7 10 16 20 23 23 21 18 17 16 12 8 6 8 12 15 17 18 18 18 18 16 14 13 12 11
41 36 31 31 30 27 26 24 21 19 18 19 19 18 17 13 6 3 5 11 17 23 26 25 21 19 18 15 10 6 6 7 9 13 15 17 18 17 17 16 15 14 13
41 35 30 28 27 26 26 27 26 25 23 22 21 20 19 14 6 1 2 8 16 22 26 26 24 21 19 18 16 14 12 9 6 7 10 12 12 12 13 14 15 15 14
39 36 31 29 30 31 32 32 30 29 26 24 23 22 20 16 7 1 3 10 18 23 26 26 24 21 18 16 18 20 19 15 8 5 5 6 6 6 6 8 11 13 12
36 36 33 31 32 33 33 33 30 27 26 25 24 24 23 19 10 3 4 13 21 24 26 25 20 16 12 10 15 21 22 17 13 9 7 6 6 5 5 6 7 8 9
33 34 33 30 28 28 29 29 27 24 23 24 25 27 27 22 13 4 4 11 18 23 25 24 19 11 4 3 7 14 16 15 14 14 13 12 11 10 10 10 9 8 7
31 31 30 27 24 24 26 26 24 22 21 22 25 28 29 25 16 7 3 5 11 17 20 19 14 6 1 0 2 5 6 8 12 15 16 15 13 13 14 14 13 11 9
32 31 30 26 24 24 25 26 25 22 19 19 23 27 27 25 19 12 5 2 3 8 12 10 6 2 0 0 0 0 2 6 11 13 14 15 14 14 14 14 13 12 11
31 32 31 28 25 25 25 25 24 21 17 16 20 23 23 21 20 17 11 6 4 5 6 5 3 2 2 2 2 2 5 9 11 12 13 14 15 14 13 12 11 11 9
31 31 31 30 28 26 24 21 19 16 14 13 15 18 18 16 15 14 12 9 7 6 6 6 6 6 6 6 6 6 9 11 12 12 13 14 15 15 13 12 12 10 8
30 30 29 29 28 25 22 18 14 11 8 7 7 10 11 9 7 6 5 4 4 4 6 9 10 10 11 11 10 10 11 13 13 13 13 13 14 14 14 13 12 10 7
28 27 26 25 25 23 20 18 16 11 7 4 3 3 4 3 1 1 0 0 0 1 5 10 12 11 11 11 10 9 9 10 12 12 12 13 14 14 13 13 12 10 8
23 23 22 21 20 19 18 19 20 16 11 7 4 2 1 0 0 0 0 0 1 2 5 9 10 9 8 7 7 7 6 8 10 11 11 12 13 14 13 12 12 10 8
19 19 18 18 17 16 16 17 19 18 14 11 8 3 1 1 1 1 0 1 2 3 4 5 6 5 5 4 4 5 5 7 9 10 10 11 12 12 11 10 10 9 8
18 15 15 15 15 14 14 14 15 14 12 11 9 6 3 3 3 3 2 1 3 3 3 3 4 4 4 4 4 4 5 6 8 9 10 10 10 10 9 7 6 7 7
14 13 13 14 14 13 11 11 10 10 10 9 8 6 5 5 6 6 4 3 3 3 3 4 5 5 5 5 5 5 4 4 6 8 9 9 9 9 8 5 4 5 6
10 11 13 12 11 9 8 8 8 7 7 7 7 6 6 7 8 7 5 4 3 3 4 5 6 5 4 4 4 3 2 2 3 5 7 7 7 7 7 5 4 4 4
9 10 10 9 7 6 5 5 6 7 7 7 7 6 6 6 6 6 4 4 3 3 4 5 5 4 3 3 3 1 0 1 2 4 5 7 7 6 6 5 4 3 4
7 8 7 6 6 5 3 3 4 7 8 7 6 6 4 3 2 2 2 3 3 3 3 4 4 4 3 4 3 1 0 1 2 3 5 7 7 7 6 4 3 3 3
7 7 7 6 6 6 4 3 4 6 7 6 5 4 2 1 0 0 0 1 2 3 4 4 4 4 4 4 3 1 0 1 1 2 4 6 7 7 7 5 4 4 4
8 8 7 6 6 6 6 5 5 5 5 5 3 2 1 0 0 0 0 0 1 3 4 4 4 4 4 4 2 0 0 0 0 1 3 5 6 7 8 7 6 5 5
Wind_Speed
8 8 7 7 7 6 5 5 5 4 4 4 4 4 3 3 3 3 3 2 3 2 2 2 2 3 3 3 2 2 3 3 4 2 1 0 1 3 1 3 3 4 5
8 8 8 7 7 6 6 5 5 5 5 4 4 4 4 4 4 4 3 3 3 3 3 2 3 2 3 3 3 3 3 3 4 4 3 2 3 3 3 5 3 3 4
8 8 8 7 7 7 6 5 5 5 5 5 5 5 4 4 4 4 4 4 4 3 3 3 3 3 4 3 4 4 3 3 3 4 4 2 3 2 4 5 5 4 6
8 8 8 7 7 6 6 6 5 5 5 5 5 5 5 4 4 4 4 4 4 4 4 4 4 4 4 4 4 4 4 4 4 5 4 3 3 3 4 5 4 4 5
8 8 7 6 6 6 6 6 5 5 5 5 5 5 5 5 4 4 5 5 5 5 5 5 5 4 3 4 5 4 4 5 4 4 4 4 4 3 4 4 5 4 4
8 7 6 6 7 7 6 6 6 5 5 5 5 5 5 3 1 2 5 5 5 5 5 5 6 6 5 6 6 6 6 6 6 6 5 5 5 5 4 5 5 5 5
7 6 6 7 7 7 7 7 6 6 6 5 5 5 5 3 2 3 5 6 6 5 5 6 6 3 5 5 6 9 8 8 8 8 7 7 6 5 5 7 6 7 7
7 7 7 7 7 7 6 6 6 6 5 5 5 5 5 4 4 5 6 7 6 6 6 6 6 6 5 5 6 6 6 6 7 7 7 7 7 5 6 8 8 8 8
7 7 7 7 7 7 7 6 6 5 5 6 5 6 6 5 5 6 6 6 6 7 7 6 7 7 3 4 7 7 7 6 7 7 7 7 7 7 7 7 6 7 7
7 6 6 6 7 7 6 6 6 5 6 6 5 6 6 6 5 6 7 7 6 6 6 7 6 7 4 5 8 7 8 7 7 6 7 8 9 8 9 9 8 8 7
6 6 6 6 6 6 6 5 6 6 5 5 5 6 6 5 5 6 6 7 6 7 6 6 4 5 6 7 9 8 7 8 8 8 7 7 7 6 7 7 7 7 8
5 6 6 6 6 5 6 5 5 5 6 6 6 6 5 5 5 6 8 8 8 8 7 6 2 4 5 8 8 7 8 8 8 7 7 6 5 5 5 6 7 8 8
6 6 6 6 5 5 6 6 6 6 6 5 5 5 4 4 5 7 10 10 9 8 6 4 3 4 6 8 10 10 9 8 7 7 7 6 6 6 6 6 7 8 10
6 6 5 6 6 6 5 5 5 5 5 5 5 5 4 4 4 3 5 6 8 9 7 5 6 8 8 7 6 8 7 7 7 7 7 6 6 6 6 6 6 6 7
5 5 5 6 5 5 6 4 5 3 3 4 4 5 4 4 2 2 4 4 4 4 5 6 6 5 6 6 6 6 6 6 6 6 6 6 6 7 6 6 6 7 7
5 5 5 5 5 5 5 4 2 3 2 2 3 5 4 2 1 2 3 5 4 3 5 6 6 6 6 6 6 6 6 6 6 6 6 6 7 7 6 6 6 7 7
5 5 4 4 4 5 5 5 4 4 5 5 5 5 5 4 4 4 5 5 5 5 6 6 6 6 6 6 6 6 5 4 5 6 6 6 7 7 7 7 6 6 7
4 4 4 4 4 4 4 4 5 5 4 4 5 7 6 6 6 5 5 5 5 5 6 6 6 5 5 5 5 5 5 5 4 5 6 6 6 7 7 7 6 7 7
3 3 3 3 4 4 4 4 4 4 4 4 3 4 7 7 7 6 6 5 5 5 5 5 5 6 6 5 5 5 5 5 5 5 6 6 7 7 7 7 7 7 7
2 1 2 3 3 3 4 4 4 4 4 4 4 3 3 4 4 4 5 5 6 5 5 5 5 6 6 5 5 5 5 5 5 6 6 6 6 7 7 8 7 7 6
2 2 4 4 4 3 3 3 4 4 4 4 3 2 4 5 5 5 4 4 5 5 5 5 5 5 5 5 5 5 6 6 5 6 6 6 6 6 6 7 7 7 6
3 3 3 3 3 3 3 3 4 4 4 5 4 3 5 6 5 4 4 4 4 4 4 4 4 4 4 4 5 5 5 6 6 6 6 6 6 6 6 7 7 5 6
3 3 3 2 3 3 4 4 4 4 4 4 4 4 3 4 4 4 4 3 3 3 3 3 4 4 4 4 5 5 5 5 5 6 7 6 6 6 6 6 7 7 6
3 2 2 2 3 3 3 4 4 4 4 4 4 3 3 3 3 3 4 3 3 3 3 3 4 5 5 5 4 4 4 5 7 7 8 7 7 6 6 6 7 7 6
2 2 3 3 2 3 3 3 4 4 3 3 3 3 3 3 3 3 2 2 3 3 3 4 3 4 4 5 5 4 4 4 5 7 7 7 7 7 7 7 7 7 6
2 2 2 2 2 2 3 3 3 3 3 3 3 3 3 3 2 2 3 3 3 3 3 3 3 4 4 4 4 4 3 4 5 6 7 6 6 6 6 6 7 7 6
Wind_Direction
191 192 195 195 199 202 204 204 202 206 203 209 216 218 218 219 222 226 247 235 240 244 248 240 252 289 290 281 265 256 263 272 274 282 268 153 249 276 241 255 243 236 187
189 190 195 197 198 200 197 198 198 200 204 204 212 219 226 218 219 224 237 240 238 239 247 252 259 257 260 277 283 276 276 280 273 279 274 240 233 247 250 258 255 248 251
185 191 193 198 199 202 200 197 199 198 201 205 206 214 223 225 223 225 229 238 242 244 247 250 257 262 262 265 270 274 270 260 263 265 266 274 258 253 257 256 256 261 263
187 191 192 198 198 197 198 199 198 198 202 206 211 215 220 225 229 231 229 233 241 245 249 253 256 258 261 265 258 264 271 271 257 260 263 255 250 245 257 264 256 234 255
189 193 190 189 189 190 190 192 193 198 202 203 209 212 218 224 230 235 237 231 237 243 245 248 250 258 277 277 282 274 268 266 262 259 263 266 261 256 259 265 272 271 249
190 189 181 183 186 188 189 189 191 197 203 205 212 217 225 232 156 253 261 248 246 247 249 251 242 227 230 231 250 263 274 269 275 274 267 270 271 268 271 272 276 276 271
183 183 182 187 190 193 194 192 195 199 201 208 215 219 223 217 185 219 245 251 249 249 250 255 262 247 238 251 233 227 235 243 253 268 277 276 274 274 277 270 271 279 282
182 185 188 193 196 197 198 197 198 200 203 210 217 221 226 217 194 216 239 239 246 247 247 248 255 263 257 263 262 256 253 241 238 246 268 273 275 277 267 268 272 266 262
187 190 192 194 197 198 198 197 198 202 207 213 217 222 226 221 200 211 237 241 239 244 248 247 251 251 240 254 258 261 262 255 227 228 244 255 264 264 268 270 266 264 267
187 189 189 192 199 200 199 200 199 205 214 220 219 227 231 233 202 206 233 249 248 248 239 236 233 249 231 225 251 258 262 265 269 249 238 239 244 238 231 249 266 269 274
183 182 185 190 196 198 198 200 203 209 213 223 228 228 230 233 204 201 225 256 263 260 258 249 224 192 219 230 247 255 261 270 266 262 255 249 244 243 238 237 250 265 274
182 185 189 192 199 189 193 200 207 211 213 221 227 233 226 219 223 202 210 236 273 270 268 270 251 180 223 235 241 254 259 262 262 263 262 260 260 260 259 255 247 250 258
188 193 193 194 198 196 196 200 205 211 226 226 226 233 236 226 205 202 209 223 239 259 274 301 298 229 234 234 232 240 244 250 259 261 261 262 265 271 268 257 249 247 252
192 195 198 199 200 200 210 212 216 221 227 231 234 239 240 236 242 218 216 217 224 239 256 247 225 230 243 260 245 229 239 251 258 262 266 268 268 263 259 264 265 260 259
196 199 207 211 208 208 211 220 229 231 250 250 248 251 256 252 274 316 285 274 272 268 267 258 254 245 241 244 246 245 246 245 249 258 264 269 268 265 265 264 265 267 266
199 205 213 217 208 214 211 210 205 230 216 239 274 284 276 294 286 248 261 279 282 273 261 260 260 260 261 259 257 252 248 252 257 259 260 264 268 270 270 268 264 265 269
214 214 222 224 219 224 224 226 222 212 213 225 234 244 255 268 254 238 238 244 242 226 246 260 267 269 270 272 272 270 267 266 268 266 266 268 268 268 268 267 266 268 272
223 217 231 225 228 230 234 239 241 240 233 228 213 210 221 232 237 233 227 231 237 227 252 264 269 271 273 274 274 274 275 273 268 271 273 275 274 272 270 270 269 272 272
239 235 234 240 236 234 240 245 249 252 256 253 243 198 202 213 215 216 213 242 258 257 256 260 265 268 271 274 276 276 273 269 271 273 272 274 275 275 275 273 270 266 266
246 284 256 246 243 239 235 243 244 243 251 257 260 267 222 222 234 218 215 236 254 262 265 265 266 271 273 274 273 271 270 270 269 268 272 273 275 277 277 277 277 271 263
247 215 219 234 239 244 243 246 248 247 249 255 264 274 281 268 264 265 261 253 260 270 276 279 280 279 277 275 274 273 275 277 278 278 278 277 277 278 278 276 273 276 280
234 225 218 232 237 242 247 251 256 256 259 262 264 235 215 251 265 265 265 267 269 269 274 278 280 283 288 284 280 279 279 282 286 286 285 285 285 282 279 279 280 280 280
242 230 216 226 240 225 234 242 249 255 260 264 267 273 258 267 273 276 277 278 278 279 283 282 282 286 291 289 286 285 288 292 292 290 286 284 283 283 285 286 282 278 273
244 242 240 232 242 249 252 255 257 260 265 268 274 279 281 282 285 286 284 288 292 294 291 285 281 287 295 298 296 307 327 319 305 290 287 285 282 283 283 283 281 278 275
243 241 245 248 253 266 274 278 280 281 281 280 282 286 289 290 291 294 291 288 289 289 288 287 288 293 303 309 317 326 339 323 301 298 286 281 281 283 283 281 282 281 281
250 249 256 262 269 280 285 285 285 291 295 297 295 296 296 291 291 293 292 290 287 283 285 286 297 304 307 310 324 327 320 307 295 290 284 280 281 284 291 290 292 286 283